This is the latest recevied weather packets stored in our database for station/object NK7E-2. If no packets are shown the sender has not sent any weather packets the latest 10 day(s).
| Time | Temp. | Humidity | Pressure | Rain* | Wind** | Luminosity | Snow |
|---|---|---|---|---|---|---|---|
| 1788128417 | 35° C | 32% | 1026.4 hPa | 0 mm | - | - | - |
| 1788127817 | 35° C | 33% | 1026.5 hPa | 0 mm | - | - | - |
| 1788127217 | 34.44° C | 32% | 1026.6 hPa | 0 mm | - | - | - |
| 1788126617 | 34.44° C | 32% | 1026.9 hPa | 0 mm | - | - | - |
| 1788126016 | 34.44° C | 32% | 1026.9 hPa | 0 mm | - | - | - |
| 1788125417 | 34.44° C | 33% | 1027.2 hPa | 0 mm | - | - | - |
| 1788124816 | 34.44° C | 34% | 1027.2 hPa | 0 mm | - | - | - |
| 1788124216 | 33.89° C | 33% | 1027.1 hPa | 0 mm | - | - | - |
| 1788123616 | 34.44° C | 33% | 1027.6 hPa | 0 mm | - | - | - |
| 1788123016 | 35° C | 32% | 1027.7 hPa | 0 mm | - | - | - |
| 1788122416 | 34.44° C | 32% | 1028.1 hPa | 0 mm | - | - | - |
| 1788121816 | 33.89° C | 34% | 1028.1 hPa | 0 mm | - | - | - |
| 1788121216 | 34.44° C | 33% | 1028.2 hPa | 0 mm | - | - | - |
| 1788120616 | 33.33° C | 35% | 1028.2 hPa | 0 mm | - | - | - |
| 1788120016 | 33.33° C | 36% | 1028.4 hPa | 0 mm | - | - | - |
| 1788119416 | 33.33° C | 36% | 1028.5 hPa | 0 mm | - | - | - |
| 1788118816 | 32.78° C | 37% | 1028.7 hPa | 0 mm | - | - | - |
| 1788118216 | 32.78° C | 37% | 1028.5 hPa | 0 mm | - | - | - |
| 1788117616 | 32.78° C | 36% | 1029.3 hPa | 0 mm | - | - | - |
| 1788117016 | 32.78° C | 37% | 1029.4 hPa | 0 mm | - | - | - |
| 1788116416 | 31.67° C | 37% | 1029.4 hPa | 0 mm | - | - | - |
| 1788115816 | 32.22° C | 38% | 1029.9 hPa | 0 mm | - | - | - |
| 1788115216 | 32.78° C | 34% | 1030.1 hPa | 0 mm | - | - | - |
| 1788114630 | 31.67° C | 37% | 1030 hPa | 0 mm | - | - | - |
| 1788114016 | 31.11° C | 40% | 1030 hPa | 0 mm | - | - | - |
* Rain latest hour (hover to see other rain measurements)
** Current wind speed in m/s (hover to see current wind gust speed)